Location: Chin
(49.7667°N, 112.4500°W)
Time: 11:23:53
(UTC+00:00)

Envisat - Pass Details

Date: 04 December 2021
Orbit: 764 x 766 km, 98.2° (Epoch: 25 January)

Event Time Altitude Azimuth Distance (km) Brightness Sun altitude
Rises 00:07:25 0° 185° (S) 3,220 6.7 -5.9°
Reaches altitude 10° 00:09:50 10° 192° (SSW) 2,299 6.1 -6.3°
Maximum altitude 00:14:37 41° 263° (W) 1,104 4.5 -6.9°
Drops below altitude 10° 00:19:26 10° 333° (NNW) 2,316 5.5 -7.6°
Sets 00:21:53 0° 341° (NNW) 3,247 6.2 -8.0°
